Weather History for CWWA - October, 2012

Change the Weather History Date:

Tuesday, October 16, 2012

  Actual Average Record
Temperature  
Mean Temperature 52 °F -  
Max Temperature 59 °F - - ()
Min Temperature 45 °F - - ()
Degree Days  
Heating Degree Days 13    
Growing Degree Days 2 (Base 50)    
Moisture  
Dew Point 42 °F    
Average Humidity 71    
Maximum Humidity 96    
Minimum Humidity 50    
Precipitation  
Precipitation 0.00 in - - ()
Sea Level Pressure  
Sea Level Pressure 29.90 in    
Wind  
Wind Speed 2 mph ()    
Max Wind Speed 4 mph    
Max Gust Speed -    
T = Trace of Precipitation, MM = Missing Value Source: Averaged Metar Reports

Daily Weather History Graph

Daily Weather History Graph

Search for Another Location

Airport or City:

Trip Planner

Search our weather history database for the weather conditions in past years. The results will help you decide how hot, cold, wet, or windy it might be!

Date:

Astronomy

Oct. 16, 2012 Rise Set
Actual Time 7:36 AM PDT 6:19 PM PDT
Civil Twilight 7:03 AM PDT 6:51 PM PDT
Nautical Twilight 6:27 AM PDT 7:28 PM PDT
Astronomical Twilight 5:50 AM PDT 8:05 PM PDT
Moon 9:18 AM PDT (10/16) 6:54 PM PDT (10/16)
Length of Visible Light 11h 47m
Length of Day
10h 42m
New Moon, 2% of the Moon is Illuminated
Oct 16
New Moon
Oct 21
First Quarter
Oct 29
Full
Nov 6
Last Quarter
Nov 13
New

Hourly Weather History & Observations

Time (PDT) Temp. Windchill Dew Point Humidity Pressure Visibility Wind Dir Wind Speed Gust Speed Precip Events Conditions
12:00 AM 52.3 °F - 51.1 °F 95% 29.49 in - NNE 2.3 mph - N/A   Unknown
1:00 AM 52.9 °F - 51.8 °F 96% 29.50 in - North 1.2 mph - N/A   Unknown
2:00 AM 51.6 °F - 49.8 °F 94% 29.52 in - NNW 1.2 mph - N/A   Unknown
3:00 AM 52.2 °F - 45.7 °F 79% 29.54 in - NW 3.5 mph - N/A   Unknown
4:00 AM 52.0 °F - 44.2 °F 75% 29.58 in - WNW 3.5 mph - N/A   Unknown
5:00 AM 51 °F - 43 °F 66% 29.62 in - WNW 3.5 mph - -  
5:00 AM 51.4 °F - 43.0 °F 73% 29.62 in - WNW 3.5 mph - N/A   Unknown
7:00 AM 47.7 °F - 40.8 °F 77% 29.74 in - NW 2.3 mph - N/A   Unknown
8:00 AM 46.2 °F 45.0 °F 39.0 °F 76% 29.79 in - North 3.5 mph - N/A   Unknown
9:00 AM 49.6 °F - 39.2 °F 67% 29.84 in - WNW 3.5 mph - N/A   Unknown
10:00 AM 52.9 °F - 37.6 °F 56% 29.90 in - West 1.2 mph - N/A   Unknown
11:00 AM 53 °F - 43 °F 58% 29.94 in - SW 1.2 mph - -  
11:00 AM 52.5 °F - 42.6 °F 69% 29.94 in - SW 1.2 mph - N/A   Unknown
12:00 PM 54.3 °F - 44.1 °F 68% 29.97 in - SSW 2.3 mph - N/A   Unknown
1:00 PM 55.9 °F - 41.5 °F 58% 29.99 in - WSW 2.3 mph - N/A   Unknown
2:00 PM 55.4 °F - 38.3 °F 53% 30.01 in - SSW 1.2 mph - N/A   Unknown
3:00 PM 58.6 °F - 41.2 °F 52% 30.01 in - SSW 2.3 mph - N/A   Unknown
4:00 PM 53.8 °F - 41.9 °F 64% 30.04 in - West 1.2 mph - N/A   Unknown
5:00 PM 53 °F - 40 °F 50% 30.06 in - East 1.2 mph - -  
5:00 PM 52.5 °F - 39.9 °F 62% 30.06 in - East 1.2 mph - N/A   Unknown
6:00 PM 52.0 °F - 38.5 °F 60% 30.09 in - South 1.2 mph - N/A   Unknown
7:00 PM 48.2 °F - 39.9 °F 73% 30.12 in - North 1.2 mph - N/A   Unknown
8:00 PM 47.5 °F - 39.7 °F 75% 30.14 in - NNE 2.3 mph - N/A   Unknown
9:00 PM 45.9 °F - 40.3 °F 81% 30.16 in - NNE 2.3 mph - N/A   Unknown
10:00 PM 48.2 °F - 41.9 °F 79% 30.19 in - WNW 2.3 mph - N/A   Unknown
11:00 PM 47 °F - 43 °F 82% 30.22 in - NNE 1.2 mph - -  
11:00 PM 47.3 °F - 43.2 °F 86% 30.22 in - NNE 1.2 mph - N/A   Unknown